Home > Weather > Post Falls > Past weeks

Flag for USA Weather for the Past 2 Weeks in Post Falls, Idaho, USA

Now
75 °F

Sunny.


Feels Like: 77 °F
Forecast: 56 / 78 °F
Wind: 12 mph from East

Location: Coeur d'Alene Weather Reporting System

Current Time: May 6, 2016 at 3:45:04 PM

Latest Report: May 6, 2016 at 3:15 PM


Visibility: 10 mi

Pressure: 29.96 "Hg (27.76 "Hg at 664m altitude)

Humidity: 36%

Dew Point: 46 °F

Location of Post FallsLocation

Historic Weather in Post Falls — Graph

°F

Post Falls Temperature Yesterday

Maximum temperature yesterday: 73 °F (at 3:15 PM)
Minimum temperature yesterday: 50 °F (at 5:55 AM)
Average temperature yesterday: 62 °F

High & Low Weather Summary for the Past Weeks

 TemperatureHumidityPressure
High82 °F (May 3, 2:35 PM)94% (Apr 23, 2:55 AM)30.25 "Hg (Apr 23, 2:55 AM)
Low36 °F (Apr 25, 1:35 AM)11% (May 1, 9:15 AM)29.54 "Hg (Apr 22, 4:15 AM)
Average57 °F61%29.93 "Hg
* Reported Apr 21 2:15 PM — May 6 2:55 PM, Post Falls, Weather by CustomWeather, © 2016

Note: Actual official high and low records may vary slightly from our data, if they occured in-between our weather recording intervals... More about our weather records

Advertising

Post Falls Weather History for the Previous 24 Hours

Scroll right to see more
 ConditionsComfort  
Time TempWeatherWind HumidityBarometerVisibility
2:55 PM
Fri, May 6
75 °FSunny.16 mph36%29.97 "Hg10 mi
2:35 PM75 °FSunny.14 mph36%29.97 "Hg10 mi
2:15 PM75 °FSunny.13 mph36%29.99 "Hg10 mi
1:55 PM75 °FSunny.12 mph36%30.00 "Hg10 mi
1:35 PM75 °FSunny.18 mph36%30.00 "Hg10 mi
1:15 PM75 °FSunny.15 mph36%30.00 "Hg10 mi
12:55 PM73 °FSunny.10 mph38%30.01 "Hg10 mi
12:35 PM73 °FSunny.15 mph38%30.01 "Hg10 mi
12:15 PM73 °FSunny.15 mph38%30.02 "Hg10 mi
11:55 AM73 °FPassing clouds.17 mph41%30.02 "Hg10 mi
11:35 AM72 °FPassing clouds.15 mph44%30.03 "Hg10 mi
10:15 AM68 °FSunny.22 mph49%30.05 "Hg10 mi
8:55 AM64 °FSunny.16 mph56%30.04 "Hg10 mi
8:35 AM63 °FSunny.17 mph59%30.04 "Hg10 mi
7:55 AM57 °FScattered clouds.18 mph72%30.04 "Hg10 mi
7:15 AM57 °FOvercast.14 mph72%30.03 "Hg10 mi
6:55 AM57 °FOvercast.13 mph72%30.03 "Hg10 mi
6:35 AM55 °FScattered clouds.12 mph72%30.02 "Hg10 mi
6:15 AM55 °FPassing clouds.14 mph72%30.01 "Hg10 mi
5:55 AM55 °FClear.13 mph72%30.00 "Hg10 mi
5:35 AM55 °FClear.10 mph72%30.00 "Hg10 mi
5:15 AM55 °FClear.12 mph72%29.99 "Hg10 mi
1:15 AM57 °FPassing clouds.14 mph72%29.96 "Hg10 mi
12:55 AM57 °FPassing clouds.9 mph72%29.95 "Hg10 mi
12:35 AM57 °FPassing clouds.10 mph72%29.94 "Hg10 mi
12:15 AM59 °FPassing clouds.10 mph68%29.93 "Hg10 mi
11:55 PM
Thu, May 5
59 °FPassing clouds.9 mph68%29.92 "Hg10 mi
11:35 PM59 °FClear.12 mph68%29.91 "Hg10 mi
10:55 PM61 °FClear.10 mph63%29.91 "Hg10 mi
10:35 PM61 °FClear.10 mph68%29.91 "Hg10 mi
10:15 PM61 °FClear.7 mph72%29.92 "Hg10 mi
9:55 PM61 °FClear.9 mph68%29.91 "Hg10 mi
9:35 PM61 °FClear.7 mph68%29.91 "Hg10 mi
9:15 PM63 °FClear.7 mph64%29.90 "Hg10 mi
8:55 PM63 °FSunny.6 mph64%29.90 "Hg10 mi
8:35 PM63 °FSunny.5 mph64%29.89 "Hg10 mi
8:15 PM64 °FSunny.7 mph56%29.87 "Hg10 mi
7:55 PM64 °FSunny.6 mph60%29.86 "Hg10 mi
7:35 PM66 °FSunny.9 mph60%29.85 "Hg10 mi
7:15 PM68 °FSunny.9 mph56%29.84 "Hg10 mi
6:55 PM70 °FSunny.10 mph53%29.84 "Hg10 mi
6:35 PM72 °FSunny.10 mph50%29.84 "Hg10 mi
6:15 PM72 °FSunny.9 mph47%29.84 "Hg10 mi
5:55 PM73 °FSunny.12 mph47%29.84 "Hg10 mi
5:35 PM73 °FSunny.8 mph47%29.84 "Hg10 mi
5:15 PM73 °FSunny.7 mph47%29.84 "Hg10 mi
4:55 PM73 °FSunny.8 mph47%29.84 "Hg10 mi
4:35 PM73 °FSunny.6 mph47%29.84 "Hg10 mi
4:15 PM73 °FSunny.8 mph44%29.85 "Hg10 mi
3:55 PM73 °FSunny.No wind44%29.85 "Hg10 mi
3:35 PM73 °FSunny.5 mph41%29.85 "Hg10 mi
3:15 PM73 °FSunny.7 mph41%29.86 "Hg10 mi
Weather by CustomWeather, © 2016

See weather overviewHow to use our weather pages